Change the Weather History Date:

Wednesday, March 7, 2012

  Actual Average Record
Temperature  
Mean Temperature 45 °F 39 °F  
Max Temperature 53 °F 46 °F 70 °F (1987)
Min Temperature 37 °F 32 °F 13 °F (2007)
Degree Days  
Heating Degree Days 20 26  
Month to date heating degree days 169 186  
Since 1 July heating degree days 3090 3697  
Cooling Degree Days 0 0  
Month to date cooling degree days 0 0  
Year to date cooling degree days 0 0  
Moisture  
Dew Point 35 °F    
Average Humidity 66    
Maximum Humidity 86    
Minimum Humidity 46    
Precipitation  
Precipitation 0.00 in 0.11 in 2.03 in (1967)
Month to date precipitation 0.40 0.78  
Year to date precipitation 3.85 6.53  
Snow  
Snow 0.00 in 0.10 in 1.70 in (1969)
Month to date snowfall 0.0 1.2  
Since 1 July snowfall 3.7 20.7  
Snow Depth 0.00 in    
Sea Level Pressure  
Sea Level Pressure 30.48 in    
Wind  
Wind Speed 14 mph (SSW)    
Max Wind Speed 21 mph    
Max Gust Speed 26 mph    
Visibility 10 miles    
Events      
T = Trace of Precipitation, MM = Missing Value Source: NWS Daily Summary

Daily Weather History Graph

Daily Weather History Graph

Search for Another Location

Airport or City:

Trip Planner

Search our weather history database for the weather conditions in past years. The results will help you decide how hot, cold, wet, or windy it might be!

Date:

Astronomy

Mar. 07, 2012 Rise Set
Actual Time 6:18 AM EST 5:53 PM EST
Civil Twilight 5:51 AM EST 6:20 PM EST
Nautical Twilight 5:19 AM EST 6:52 PM EST
Astronomical Twilight 4:48 AM EST 7:24 PM EST
Moon 5:27 PM EST (3/7) 5:27 AM EST (3/7)
Length of Visible Light 12h 29m
Length of Day
11h 34m
Waxing Gibbous, 99% of the Moon is Illuminated
Mar 7
Waxing Gibbous
Mar 8
Full
Mar 14
Last Quarter
Mar 22
New
Mar 30
First Quarter

Hourly Weather History & Observations

Time (EST) Temp. Windchill Dew Point Humidity Pressure Visibility Wind Dir Wind Speed Gust Speed Precip Events Conditions
12:51 AM 37.9 °F 29.6 °F 27.0 °F 65% 30.61 in 10.0 mi SSW 13.8 mph - N/A   Clear
1:51 AM 37.0 °F 28.9 °F 26.1 °F 65% 30.60 in 10.0 mi SW 12.7 mph - N/A   Clear
2:51 AM 37.9 °F 28.2 °F 26.1 °F 62% 30.59 in 10.0 mi SW 18.4 mph - N/A   Clear
3:51 AM 39.0 °F 30.3 °F 28.9 °F 67% 30.58 in 10.0 mi SW 16.1 mph - N/A   Clear
4:51 AM 39.0 °F 31.0 °F 28.9 °F 67% 30.57 in 10.0 mi SW 13.8 mph - N/A   Clear
5:51 AM 39.0 °F 32.3 °F 30.0 °F 70% 30.58 in 10.0 mi SW 10.4 mph - N/A   Partly Cloudy
6:51 AM 39.9 °F 31.8 °F 30.0 °F 68% 30.58 in 10.0 mi SW 15.0 mph - N/A   Scattered Clouds
7:51 AM 42.1 °F 34.9 °F 30.0 °F 62% 30.58 in 10.0 mi SW 13.8 mph - N/A   Partly Cloudy
8:51 AM 44.1 °F 38.1 °F 30.0 °F 58% 30.57 in 10.0 mi SW 11.5 mph - N/A   Partly Cloudy
9:51 AM 46.9 °F - 30.0 °F 52% 30.56 in 10.0 mi SW 12.7 mph - N/A   Partly Cloudy
10:51 AM 50.0 °F - 30.9 °F 48% 30.53 in 10.0 mi WSW 10.4 mph - N/A   Partly Cloudy
11:51 AM 51.1 °F - 33.1 °F 50% 30.51 in 10.0 mi South 8.1 mph - N/A   Scattered Clouds
12:51 PM 52.0 °F - 36.0 °F 54% 30.46 in 10.0 mi South 15.0 mph - N/A   Partly Cloudy
1:51 PM 52.0 °F - 37.9 °F 59% 30.43 in 10.0 mi SSW 15.0 mph - N/A   Scattered Clouds
2:51 PM 52.0 °F - 39.0 °F 61% 30.40 in 10.0 mi South 16.1 mph - N/A   Mostly Cloudy
3:51 PM 51.1 °F - 39.0 °F 63% 30.39 in 10.0 mi SSW 13.8 mph - N/A   Mostly Cloudy
4:51 PM 48.9 °F - 39.0 °F 69% 30.37 in 10.0 mi South 18.4 mph - N/A   Mostly Cloudy
5:51 PM 48.0 °F - 39.9 °F 74% 30.36 in 10.0 mi SSW 18.4 mph - N/A   Mostly Cloudy
6:51 PM 48.9 °F - 39.9 °F 71% 30.38 in 10.0 mi SSW 13.8 mph - N/A   Mostly Cloudy
7:51 PM 48.0 °F - 41.0 °F 77% 30.38 in 10.0 mi South 15.0 mph - N/A   Mostly Cloudy
8:51 PM 48.9 °F - 41.0 °F 74% 30.38 in 10.0 mi SSW 16.1 mph - N/A   Mostly Cloudy
9:51 PM 46.9 °F - 42.1 °F 83% 30.37 in 10.0 mi South 13.8 mph - N/A   Mostly Cloudy
10:51 PM 46.9 °F - 42.1 °F 83% 30.36 in 10.0 mi SSW 16.1 mph - N/A   Mostly Cloudy
11:51 PM 46.9 °F - 42.1 °F 83% 30.35 in 10.0 mi SSW 11.5 mph - N/A   Scattered Clouds